KC0VVH Weather Reports


Display with metric or nautical units.
time (UTC)temp
F
wind
direction
speed
MPH
gust
MPH
rain 1hr
in
rain 24hr
in
rain mn
in
humidity
%
barometer
mb
20260902110933 61 0 0.0 0.0 0.00 0.48 0.00 66 1016.5
20260902110012 61 92 0.0 3.0 0.00 0.48 0.00 65 1016.5
20260902105433 61 92 0.0 3.0 0.00 0.48 0.00 67 1016.5
20260902104512 61 92 0.0 4.0 0.00 0.48 0.00 66 1016.5
20260902103612 62 0 0.0 0.0 0.00 0.48 0.00 66 1016.5
20260902102712 62 0 0.0 0.0 0.00 0.48 0.00 66 1016.5
20260902101812 62 0 0.0 0.0 0.00 0.48 0.00 64 1016.5
20260902100912 61 0 0.0 1.0 0.00 0.48 0.00 66 1016.5
20260902100033 60 0 0.0 0.0 0.00 0.48 0.00 70 1016.5
20260902095412 60 0 0.0 0.0 0.00 0.48 0.00 72 1016.5
20260902094512 60 0 0.0 0.0 0.00 0.48 0.00 70 1016.5
20260902093612 60 0 0.0 0.0 0.00 0.48 0.00 72 1016.5
20260902092712 61 0 0.0 0.0 0.00 0.48 0.00 70 1016.5
20260902091812 61 0 0.0 0.0 0.00 0.48 0.00 71 1016.5
20260902090912 61 0 0.0 0.0 0.00 0.48 0.00 69 1016.5
20260902090012 62 0 0.0 0.0 0.00 0.48 0.00 68 1016.5
20260902085412 62 0 0.0 0.0 0.00 0.48 0.00 67 1016.5
20260902084533 62 0 0.0 0.0 0.00 0.48 0.00 66 1016.5
20260902083633 63 0 0.0 0.0 0.00 0.48 0.00 64 1016.5
20260902082712 63 92 0.0 2.0 0.00 0.48 0.00 64 1016.5
20260902081812 63 0 0.0 0.0 0.00 0.48 0.00 63 1016.5
20260902080912 64 0 0.0 0.0 0.00 0.48 0.00 61 1016.5
20260902080012 64 92 0.0 3.0 0.00 0.48 0.00 61 1016.5
20260902075412 65 92 0.0 3.0 0.00 0.48 0.00 62 1016.5
20260902074512 65 95 2.0 9.0 0.00 0.48 0.00 59 1016.5
20260902073612 65 0 0.0 0.0 0.00 0.48 0.00 60 1016.5
20260902072733 66 164 0.0 5.0 0.00 0.48 0.00 58 1016.5
20260902071812 66 0 0.0 0.0 0.00 0.48 0.00 55 1016.5
20260902070912 66 0 0.0 0.0 0.00 0.48 0.00 56 1016.5
20260902070012 65 167 0.0 4.0 0.00 0.48 0.00 56 1016.5
20260902065412 65 0 0.0 0.0 0.00 0.48 0.00 59 1016.5
20260902064533 65 0 0.0 0.0 0.00 0.48 0.00 60 1016.5
20260902063612 66 0 0.0 0.0 0.00 0.48 0.00 56 1016.5
20260902062712 66 0 0.0 0.0 0.00 0.48 0.00 58 1016.5
20260902061812 66 0 0.0 0.0 0.00 0.48 0.00 58 1016.5
20260902060912 66 0 0.0 0.0 0.00 0.48 0.00 58 1016.5
20260902060012 66 167 0.0 3.0 0.00 0.48 0.00 57 1016.5
20260902055412 66 167 0.0 1.0 0.00 0.48 0.48 59 1016.5
20260902054512 67 167 1.0 6.0 0.00 0.48 0.48 59 1016.5
20260902053612 67 0 0.0 0.0 0.00 0.48 0.48 55 1016.5
20260902052733 67 166 0.0 4.0 0.00 0.48 0.48 55 1016.5
20260902051812 67 166 1.0 5.0 0.00 0.48 0.48 54 1016.5
20260902050912 69 179 2.0 6.0 0.00 0.48 0.48 56 1016.5
20260902050012 70 242 1.0 5.0 0.00 0.48 0.48 50 1016.5
20260902045412 71 244 1.0 7.0 0.00 0.48 0.48 44 1016.5
20260902044512 70 244 1.0 7.0 0.00 0.48 0.48 44 1016.5
20260902043633 71 244 1.0 4.0 0.00 0.48 0.48 45 1016.5
20260902042712 70 247 1.0 7.0 0.00 0.48 0.48 46 1016.5
20260902041812 71 245 1.0 8.0 0.00 0.48 0.48 47 1016.5
20260902040933 71 246 1.0 7.0 0.00 0.48 0.48 47 1016.5
20260902040033 71 249 2.0 9.0 0.00 0.48 0.48 47 1016.5
20260902035433 71 251 2.0 9.0 0.00 0.48 0.48 47 1016.5
20260902034512 71 243 1.0 6.0 0.00 0.48 0.48 49 1016.5
20260902033612 71 243 1.0 5.0 0.00 0.48 0.48 52 1016.5
20260902032712 71 244 1.0 5.0 0.00 0.48 0.48 54 1016.5
20260902031812 71 244 1.0 7.0 0.00 0.48 0.48 55 1016.5
20260902030912 71 243 2.0 9.0 0.00 0.48 0.48 55 1016.5
20260902030012 70 239 1.0 6.0 0.00 0.48 0.48 56 1016.5
20260902025412 70 239 1.0 6.0 0.00 0.48 0.48 57 1016.5
20260902024512 70 239 2.0 6.0 0.00 0.48 0.48 58 1016.5
20260902023633 71 240 2.0 6.0 0.00 0.48 0.48 58 1016.5
20260902022712 71 240 2.0 8.0 0.00 0.48 0.48 58 1016.5
20260902021812 71 240 2.0 5.0 0.00 0.48 0.48 57 1016.5
20260902020912 71 240 1.0 4.0 0.00 0.48 0.48 58 1016.5
20260902020012 71 240 1.0 4.0 0.00 0.48 0.48 59 1016.5
20260902015412 71 240 1.0 5.0 0.00 0.48 0.48 58 1016.5
20260902014512 71 240 0.0 4.0 0.00 0.48 0.48 58 1016.5
20260902013612 71 240 1.0 5.0 0.00 0.48 0.48 56 1016.5
20260902012712 72 240 1.0 5.0 0.00 0.48 0.48 56 1016.5
20260902011812 72 225 1.0 5.0 0.00 0.48 0.48 55 1016.5
20260902010933 72 215 1.0 5.0 0.00 0.48 0.48 56 1016.5
20260902010012 71 0 0.0 0.0 0.00 0.48 0.48 55 1016.5
20260902005412 72 153 0.0 5.0 0.00 0.48 0.48 56 1016.5
20260902004512 72 0 0.0 0.0 0.00 0.48 0.48 58 1016.5
20260902003612 72 88 0.0 3.0 0.00 0.48 0.48 57 1016.5
20260902002712 73 89 1.0 7.0 0.00 0.48 0.48 52 1016.5
20260902001812 74 106 1.0 7.0 0.00 0.48 0.48 52 1016.5
20260902000912 74 207 1.0 8.0 0.00 0.48 0.48 53 1016.5
20260902000012 74 222 1.0 8.0 0.00 0.48 0.48 51 1016.5
20260901235412 74 0 0.0 0.0 0.01 0.48 0.48 48 1016.5
20260901234512 73 285 0.0 3.0 0.01 0.48 0.48 58 1016.5
20260901233612 71 273 1.0 4.0 0.01 0.48 0.48 61 1016.5
20260901232712 70 274 0.0 2.0 0.01 0.48 0.48 65 1016.5
20260901231812 69 0 0.0 0.0 0.01 0.48 0.48 66 1016.5
20260901230912 68 0 0.0 1.0 0.01 0.48 0.48 71 1016.5
20260901230012 67 0 0.0 1.0 0.01 0.48 0.48 77 1016.5
20260901225412 66 0 0.0 0.0 0.01 0.47 0.47 82 1016.5
20260901224512 64 239 1.0 8.0 0.04 0.47 0.47 78 1016.5
20260901223633 64 231 2.0 9.0 0.13 0.47 0.47 81 1016.5
20260901222712 63 232 1.0 5.0 0.31 0.47 0.47 80 1016.5
20260901221812 62 0 0.0 0.0 0.47 0.47 0.47 86 1016.5
20260901220912 62 0 0.0 1.0 0.47 0.47 0.47 86 1016.5
20260901220012 61 0 0.0 0.0 0.47 0.47 0.47 85 1016.5
20260901215412 61 0 0.0 0.0 0.46 0.46 0.46 83 1016.5
20260901214512 61 241 1.0 8.0 0.43 0.43 0.43 80 1016.5
20260901213612 62 229 6.0 26.0 0.34 0.34 0.34 76 1016.5
20260901212712 66 211 15.0 34.0 0.16 0.16 0.16 67 1016.5
20260901211812 77 210 4.0 25.0 0.00 0.00 0.00 51 1016.5
20260901210912 78 42 1.0 5.0 0.00 0.00 0.00 45 1016.5
20260901210012 80 47 1.0 7.0 0.00 0.00 0.00 44 1016.5
20260901205412 80 49 3.0 9.0 0.00 0.00 0.00 42 1016.5
20260901204512 81 52 3.0 9.0 0.00 0.00 0.00 43 1016.5
20260901203633 81 49 0.0 3.0 0.00 0.00 0.00 42 1016.5
20260901202712 80 44 1.0 7.0 0.00 0.00 0.00 43 1016.5
20260901201812 81 41 2.0 9.0 0.00 0.00 0.00 42 1016.5
20260901200933 80 46 3.0 9.0 0.00 0.00 0.00 42 1016.5
20260901200012 80 46 1.0 6.0 0.00 0.00 0.00 43 1016.5
20260901195433 79 40 2.0 7.0 0.00 0.00 0.00 44 1016.5
20260901194512 79 37 2.0 9.0 0.00 0.00 0.00 44 1016.5
20260901193633 79 34 3.0 9.0 0.00 0.00 0.00 44 1016.5
20260901192712 78 33 0.0 4.0 0.00 0.00 0.00 45 1016.5
20260901191833 78 34 1.0 5.0 0.00 0.00 0.00 45 1016.5
20260901190912 77 24 2.0 8.0 0.00 0.00 0.00 46 1016.5
20260901190012 77 17 0.0 4.0 0.00 0.00 0.00 45 1016.5
20260901185412 77 16 1.0 5.0 0.00 0.00 0.00 46 1016.5
20260901184533 78 15 2.0 5.0 0.00 0.00 0.00 46 1016.5
20260901183612 78 24 4.0 9.0 0.00 0.00 0.00 49 1016.5
20260901182733 77 38 3.0 6.0 0.00 0.00 0.00 50 1016.5
20260901181812 76 31 2.0 6.0 0.00 0.00 0.00 52 1016.5
20260901180912 75 33 2.0 6.0 0.00 0.00 0.00 55 1016.5
20260901180012 75 36 1.0 5.0 0.00 0.00 0.00 55 1016.5
20260901175433 75 36 1.0 6.0 0.00 0.00 0.00 58 1016.5
20260901174512 74 36 0.0 4.0 0.00 0.00 0.00 57 1016.5
20260901173633 73 36 1.0 6.0 0.00 0.00 0.00 58 1016.5
20260901172712 72 38 2.0 5.0 0.00 0.00 0.00 61 1016.5
20260901171812 72 38 1.0 5.0 0.00 0.00 0.00 62 1016.5
20260901170912 72 38 1.0 6.0 0.00 0.00 0.00 61 1016.5
20260901170012 72 40 0.0 4.0 0.00 0.00 0.00 60 1016.5
20260901165412 72 41 0.0 4.0 0.00 0.00 0.00 60 1016.5
20260901164512 72 41 1.0 5.0 0.00 0.00 0.00 64 1016.5
20260901163612 70 41 0.0 3.0 0.00 0.00 0.00 68 1016.5
20260901162712 69 42 1.0 4.0 0.00 0.00 0.00 68 1016.5
20260901161812 70 44 0.0 1.0 0.00 0.00 0.00 66 1016.5
20260901160912 70 0 0.0 0.0 0.00 0.00 0.00 67 1016.5
20260901160012 70 0 0.0 0.0 0.00 0.00 0.00 68 1016.5
20260901155412 71 0 0.0 0.0 0.00 0.00 0.00 67 1016.5
20260901154512 70 0 0.0 0.0 0.00 0.00 0.00 72 1016.5
20260901153633 68 0 0.0 1.0 0.00 0.00 0.00 72 1016.5
20260901152712 68 0 0.0 0.0 0.00 0.00 0.00 74 1016.5
20260901151812 67 0 0.0 0.0 0.00 0.00 0.00 77 1016.5
20260901150933 66 0 0.0 0.0 0.00 0.00 0.00 77 1016.5
20260901150012 67 0 0.0 0.0 0.00 0.00 0.00 75 1016.5
20260901145412 67 0 0.0 0.0 0.00 0.00 0.00 76 1016.5
20260901144512 67 0 0.0 0.0 0.00 0.00 0.00 76 1016.5
20260901143612 65 0 0.0 0.0 0.00 0.00 0.00 79 1016.5
20260901142712 64 0 0.0 0.0 0.00 0.00 0.00 82 1016.5
20260901141833 63 0 0.0 0.0 0.00 0.00 0.00 86 1016.5
20260901140912 61 0 0.0 0.0 0.00 0.00 0.00 89 1016.5
20260901140012 60 0 0.0 0.0 0.00 0.00 0.00 89 1016.5
20260901135412 60 0 0.0 0.0 0.00 0.00 0.00 89 1016.5
20260901134512 60 0 0.0 0.0 0.00 0.00 0.00 90 1016.5
20260901133612 59 0 0.0 0.0 0.00 0.00 0.00 92 1016.5
20260901132712 58 0 0.0 0.0 0.00 0.00 0.00 93 1016.5
20260901131812 58 0 0.0 0.0 0.00 0.00 0.00 93 1016.5
20260901130912 58 0 0.0 0.0 0.00 0.00 0.00 93 1016.5
20260901130012 58 0 0.0 0.0 0.00 0.00 0.00 93 1016.5
20260901125412 57 0 0.0 0.0 0.00 0.00 0.00 93 1016.5
20260901124533 57 0 0.0 0.0 0.00 0.00 0.00 93 1016.5
20260901123612 57 0 0.0 0.0 0.00 0.00 0.00 93 1016.5
20260901122712 57 0 0.0 0.0 0.00 0.00 0.00 93 1016.5
20260901121812 57 0 0.0 0.0 0.00 0.00 0.00 93 1016.5
20260901120912 57 0 0.0 0.0 0.00 0.00 0.00 92 1016.5
20260901120012 57 0 0.0 0.0 0.00 0.00 0.00 92 1016.5
20260901115412 57 0 0.0 0.0 0.00 0.00 0.00 92 1016.5
20260901114512 57 0 0.0 0.0 0.00 0.00 0.00 92 1016.5
20260901113633 57 0 0.0 0.0 0.00 0.00 0.00 92 1016.5
20260901112712 57 0 0.0 0.0 0.00 0.00 0.00 92 1016.5
20260901111812 58 0 0.0 0.0 0.00 0.00 0.00 91 1016.5